SQ4LOL-13 Weather Reports


time (UTC)temp
F
wind
direction
speed
knots
gust
knots
rain 1hr
in
rain 24hr
in
rain mn
in
humidity
%
barometer
mb
20260508095153 51 312 0.9 4.3 0.05 0.57 0.31 90 999.0
20260508094231 51 300 0.9 3.5 0.05 0.56 0.30 90 998.9
20260508093149 51 287 0.9 3.5 0.05 0.55 0.30 90 998.7
20260508092148 50 323 0.9 3.5 0.06 0.54 0.29 90 998.8
20260508091146 50 291 1.7 4.3 0.06 0.53 0.28 90 998.7
20260508090143 50 288 1.7 6.1 0.06 0.53 0.27 90 998.7
20260508085141 50 315 1.7 6.1 0.06 0.52 0.26 90 998.6
20260508084139 50 317 1.7 5.2 0.06 0.51 0.25 90 998.6
20260508083157 50 305 1.7 3.5 0.06 0.50 0.24 90 998.6
20260508082135 50 307 0.9 3.5 0.05 0.49 0.23 90 998.6
20260508081153 50 308 0.9 3.5 0.04 0.48 0.22 90 998.5
20260508080131 50 306 0.9 2.6 0.05 0.47 0.21 90 998.5
20260508075130 50 289 0.9 3.5 0.05 0.46 0.20 90 998.3
20260508074127 50 299 0.9 3.5 0.04 0.45 0.19 90 998.2
20260508073126 50 289 0.9 3.5 0.04 0.44 0.18 90 998.1
20260508072124 50 311 1.7 3.5 0.05 0.44 0.18 90 998.0
20260508071121 49 315 0.9 3.5 0.06 0.43 0.18 90 998.0
20260508070138 49 301 0.9 3.5 0.05 0.42 0.16 90 997.9
20260508065118 49 321 0.9 5.2 0.05 0.41 0.15 90 998.0
20260508064116 49 315 0.9 3.5 0.06 0.41 0.15 90 997.9
20260508063113 49 356 0.9 3.5 0.06 0.39 0.14 90 997.8
20260508062111 49 322 0.9 3.5 0.06 0.38 0.13 90 997.7
20260508061110 49 324 0.9 3.5 0.06 0.38 0.12 90 997.7
20260508060107 49 297 0.9 3.5 0.06 0.37 0.11 90 997.6
20260508055105 49 292 0.9 3.5 0.05 0.36 0.11 90 997.6
20260508054103 49 300 0.9 4.3 0.04 0.34 0.09 90 997.4
20260508053101 49 0 0.9 4.3 0.03 0.33 0.07 90 997.5
20260508052059 49 300 0.9 3.5 0.03 0.33 0.07 90 997.5
20260508051057 49 305 0.9 5.2 0.03 0.32 0.06 90 997.3
20260508050055 49 295 0.9 3.5 0.03 0.31 0.06 90 997.3
20260508045054 49 344 1.7 5.2 0.02 0.31 0.05 90 997.4
20260508044051 49 312 0.9 3.5 0.02 0.30 0.05 90 997.2
20260508043149 49 315 0.9 5.2 0.02 0.30 0.04 90 997.2
20260508042108 49 346 1.7 5.2 0.01 0.30 0.04 90 997.1
20260508041045 49 325 1.7 3.5 0.01 0.29 0.04 90 997.1
20260508040043 49 281 1.7 4.3 0.01 0.29 0.03 90 997.2
20260508035041 49 315 1.7 4.3 0.01 0.29 0.03 90 997.2
20260508034039 49 298 1.7 3.5 0.01 0.29 0.03 89 997.1
20260508033037 49 296 1.7 5.2 0.01 0.28 0.03 89 997.0
20260508032035 49 303 1.7 6.1 0.01 0.28 0.03 89 997.1
20260508031033 49 311 1.7 4.3 0.01 0.28 0.03 89 997.0
20260508030031 49 318 0.9 2.6 0.01 0.28 0.02 89 997.0
20260508025029 49 330 0.9 3.5 0.01 0.28 0.02 89 996.9
20260508024027 49 334 0.9 3.5 0.01 0.27 0.02 88 996.7
20260508023025 49 351 0.9 4.3 0.01 0.27 0.02 88 996.8
20260508022023 49 306 0.9 3.5 0.01 0.27 0.02 88 996.9
20260508021021 49 306 0.9 2.6 0.01 0.27 0.02 88 996.9
20260508020019 49 333 0.9 2.6 0.01 0.27 0.01 88 996.8
20260508015037 49 329 0.9 3.5 0.01 0.27 0.01 87 996.9
20260508014035 50 326 0.9 2.6 0.01 0.27 0.01 87 997.0
20260508013033 50 323 0.9 3.5 0.01 0.27 0.01 87 997.1
20260508012011 50 270 0.9 1.7 0.01 0.27 0.01 86 997.1
20260508011009 50 0 0.9 3.5 0.01 0.27 0.01 86 997.2
20260508010007 50 294 0.9 3.5 0.00 0.26 0.00 85 997.0
20260508005005 50 315 0.9 3.5 0.00 0.26 0.00 85 996.8
20260508004003 50 311 0.9 3.5 0.00 0.26 0.00 84 996.8
20260508003001 51 291 0.9 3.5 0.00 0.26 0.00 84 996.8
20260508002019 51 291 1.7 4.3 0.00 0.26 0.00 84 997.0
20260508000957 51 270 0.9 2.6 0.00 0.26 0.00 84 996.9
20260507235955 51 308 0.9 3.5 0.00 0.26 0.00 84 996.8
20260507234953 51 341 0.9 5.2 0.00 0.26 0.00 84 997.0
20260507233952 51 341 0.9 4.3 0.00 0.26 0.00 84 997.0
20260507232949 51 315 0.9 3.5 0.00 0.26 0.00 84 997.1
20260507231946 51 323 0.9 3.5 0.00 0.26 0.00 83 997.0
20260507231006 51 11 0.9 3.5 0.00 0.26 0.00 84 996.9
20260507230003 51 347 0.9 2.6 0.00 0.26 0.00 84 997.0
20260507224941 52 348 0.9 3.5 0.00 0.26 0.00 84 997.0
20260507224020 52 41 0.9 3.5 0.00 0.26 0.00 84 996.8
20260507222938 52 23 0.9 3.5 0.00 0.26 0.00 84 996.9
20260507221936 52 38 0.9 5.2 0.00 0.26 0.00 84 996.8
20260507220934 52 57 1.7 3.5 0.00 0.26 0.00 85 996.7
20260507215931 52 331 1.7 4.3 0.00 0.26 0.26 84 996.7
20260507214929 52 318 0.9 3.5 0.00 0.26 0.26 84 996.7
20260507213947 52 270 1.7 3.5 0.00 0.26 0.26 84 996.8
20260507212925 53 293 1.7 3.5 0.00 0.26 0.26 84 996.7
20260507211923 53 297 1.7 4.3 0.00 0.26 0.26 83 996.6
20260507210941 53 301 0.9 4.3 0.00 0.26 0.26 83 996.6
20260507205920 53 309 0.9 3.5 0.00 0.26 0.26 83 996.7
20260507204917 53 341 0.9 3.5 0.00 0.26 0.26 83 996.5
20260507203915 53 270 0.9 3.5 0.00 0.26 0.26 83 996.4
20260507202913 53 291 0.9 4.3 0.00 0.26 0.26 83 996.1
20260507201911 53 279 1.7 4.3 0.00 0.26 0.26 83 996.0
20260507200929 53 286 0.9 3.5 0.00 0.26 0.26 83 996.2
20260507195907 54 292 1.7 5.2 0.00 0.26 0.26 83 996.1
20260507194925 54 287 2.6 6.1 0.00 0.26 0.26 83 996.1
20260507193923 54 298 1.7 5.2 0.00 0.26 0.26 82 996.0
20260507192921 55 288 1.7 4.3 0.00 0.26 0.26 82 995.8
20260507191859 55 283 1.7 6.1 0.00 0.26 0.26 82 995.9
20260507190936 55 334 0.9 4.3 0.00 0.26 0.26 82 995.8
20260507185856 55 282 1.7 4.3 0.00 0.26 0.26 82 995.7
20260507184853 56 300 0.9 5.2 0.00 0.26 0.26 82 995.4
20260507183850 56 288 1.7 4.3 0.00 0.26 0.26 81 995.4
20260507182850 56 286 1.7 4.3 0.00 0.26 0.26 80 995.2
20260507181847 57 292 2.6 7.0 0.00 0.26 0.26 80 995.0
20260507180845 57 286 1.7 4.3 0.00 0.26 0.26 79 995.0
20260507175843 58 270 0.9 5.2 0.00 0.26 0.26 79 994.8
20260507174842 58 289 1.7 4.3 0.00 0.26 0.26 79 994.8
20260507173839 58 286 0.9 3.5 0.00 0.26 0.26 78 994.6
20260507172836 59 285 2.6 5.2 0.00 0.26 0.26 77 994.4
20260507171835 60 290 2.6 6.1 0.00 0.26 0.26 77 994.2
20260507170834 60 291 2.6 6.1 0.00 0.26 0.26 77 994.1
20260507165832 60 289 3.5 6.1 0.00 0.26 0.26 75 994.0
20260507164829 61 282 3.5 6.1 0.00 0.26 0.26 74 994.1
20260507163827 62 281 3.5 7.0 0.00 0.26 0.26 74 993.7
20260507162825 62 280 2.6 6.1 0.00 0.26 0.26 74 993.7
20260507161843 63 282 3.5 7.0 0.00 0.26 0.26 73 993.6
20260507160821 64 282 3.5 8.7 0.01 0.26 0.26 72 993.5
20260507155819 64 282 3.5 9.6 0.01 0.26 0.26 73 993.5
20260507154818 64 292 3.5 6.1 0.01 0.26 0.26 77 993.2
20260507153815 64 287 2.6 6.1 0.01 0.26 0.26 76 993.4
20260507152833 65 287 2.6 6.1 0.01 0.26 0.26 78 993.2
20260507151811 64 287 0.9 4.3 0.02 0.26 0.26 82 993.1
20260507150809 64 293 1.7 5.2 0.01 0.25 0.25 80 992.9
20260507145807 64 288 0.9 3.5 0.01 0.25 0.25 84 993.0
20260507144825 64 270 0.9 3.5 0.02 0.25 0.25 86 993.0
20260507143803 64 290 1.7 6.1 0.08 0.25 0.25 84 993.1
20260507142821 64 0.0 0.9 0.08 0.25 0.25 86 993.0
20260507141800 64 239 0.9 1.7 0.08 0.24 0.24 85 993.0
20260507140758 65 90 0.9 1.7 0.07 0.23 0.23 86 992.7
20260507135756 65 176 0.9 0.9 0.09 0.23 0.23 86 992.8
20260507134753 65 153 0.9 0.9 0.09 0.23 0.23 85 992.6
20260507133752 65 183 0.9 1.7 0.04 0.17 0.17 85 992.5
20260507132749 66 187 0.9 0.9 0.04 0.16 0.16 87 992.5
20260507131747 66 0.0 0.9 0.04 0.16 0.16 87 992.4
20260507130746 66 164 0.9 0.9 0.04 0.16 0.16 87 992.3
20260507125803 65 225 0.9 1.7 0.01 0.14 0.14 86 992.2
20260507124741 65 14 0.9 0.9 0.00 0.13 0.13 86 992.1
20260507123739 65 90 0.9 0.9 0.02 0.13 0.13 86 992.2
20260507122737 65 139 0.9 0.9 0.11 0.13 0.13 85 992.3
20260507121735 66 157 0.9 0.9 0.13 0.13 0.13 84 992.1
20260507120753 66 359 0.9 0.9 0.13 0.13 0.13 82 992.1
20260507115731 67 0 0.9 2.6 0.13 0.13 0.13 78 992.1
20260507114729 68 270 0.9 2.6 0.13 0.13 0.13 74 992.2
20260507113727 71 239 0.9 3.5 0.11 0.11 0.11 68 992.2
20260507112806 73 270 1.7 9.6 0.01 0.01 0.01 57 992.0
20260507111723 75 270 2.6 7.0 0.00 0.00 0.00 50 991.4
20260507110801 76 231 1.7 9.6 0.00 0.00 0.00 48 991.1
20260507105718 76 207 0.9 3.5 0.00 0.00 0.00 49 991.0
20260507104737 75 173 0.9 5.2 0.00 0.00 0.00 50 991.1
20260507103716 75 194 0.9 4.3 0.00 0.00 0.00 51 991.2
20260507102713 75 213 0.9 2.6 0.00 0.00 0.00 52 991.3
20260507101731 74 232 0.9 2.6 0.00 0.00 0.00 53 991.2
20260507100710 74 225 0.9 5.2 0.00 0.00 0.00 53 991.1